Location: Breitenbach
(46.9500°N, 15.3000°E)
Time: 02:59:38
(UTC+00:00)

Daily predictions for brighter satellites

Satellite Brightness Start Highest point End
(mag) Time Altitude Azimuth Time Altitude Azimuth Time Altitude Azimuth
CENTAUR R/B 3.3 02:02:59 48° E 02:02:59 48° E 02:08:34 10° NE
CZ-2C R/B 3.7 02:24:17 10° NNE 02:28:53 36° E 02:29:29 35° ESE
ISS -0.4 02:36:08 13° E 02:36:08 13° E 02:36:34 10° E
Cosmos 1697 Rocket 3.4 02:35:00 36° N 02:36:52 50° ENE 02:42:22 10° SE
Cosmos 2344 3.4 02:37:40 73° WNW 02:38:04 75° NW 02:46:15 10° NE
Lacrosse 4 Rocket 3.4 02:42:02 24° NE 02:42:02 24° NE 02:43:47 10° NE
COSMOS 2406 3.8 02:39:30 50° SE 02:40:16 54° ESE 02:45:47 10° NE
USA 238 DEB 3.7 02:41:03 66° NNW 02:41:03 66° NNW 02:47:33 10° NE
USA 238 3.7 02:41:08 66° NNW 02:41:08 66° NNW 02:47:40 10° NE
NOSS 3-2 (A) 3.8 02:44:26 53° NNW 02:44:26 53° NNW 02:50:11 10° NE
Lacrosse 5 rocket 3.2 02:50:07 26° E 02:50:07 26° E 02:52:04 10° ENE
ATLAS 3B R/B 3.7 02:45:39 17° S 02:50:05 39° ESE 02:56:09 10° NE
PAYLOAD A 4.2 02:49:44 10° NNE 02:54:52 72° ESE 02:55:43 59° SSE
USA 234 3.7 02:52:13 10° NE 02:58:23 46° NNW 02:59:22 43° NW
Cosmos 1980 Rocket 3.3 02:54:35 12° NNW 02:59:34 42° NE 03:04:51 10° SE
ADEOS Rocket 2.6 02:55:47 10° SSE 03:01:16 88° WSW 03:06:56 10° NNW
ERS-2 3.4 03:02:00 10° SE 03:04:42 38° ESE 03:04:42 38° ESE
Nadezhda 4 Rocket 4.3 02:59:56 10° S 03:05:57 64° E 03:12:01 10° NNE
Cosmos 2180 Rocket 4.3 03:00:58 10° NNW 03:07:14 76° W 03:13:24 10° S
Cosmos 2228 4.1 03:03:20 10° N 03:07:33 44° ENE 03:11:44 10° SSE
Geosat 4.3 03:02:57 10° SE 03:07:54 64° ENE 03:10:58 24° NNW
Cosmos 1269 Rocket 3.9 03:09:18 69° NW 03:09:18 69° NW 03:14:23 10° NNE
Cosmos 44 Rocket 4.4 03:14:19 33° S 03:14:19 33° S 03:17:22 10° SSE
Cosmos 2360 4.3 03:13:17 20° NNW 03:17:24 78° ENE 03:23:05 10° SSE
Cosmos 1606 Rocket 4.3 03:13:35 10° N 03:18:00 54° ENE 03:22:22 10° SSE
Cosmos 1400 Rocket 4.4 03:16:23 10° N 03:20:02 35° ENE 03:23:37 10° SE
IDEFIX/ARIANE 42P 4.2 03:16:52 10° N 03:18:53 20° NNW 03:18:53 20° NNW
Intercosmos 24 3.8 03:25:09 10° N 03:29:03 73° E 03:32:35 10° SSE
COSMO-SKYMED 1 4.2 03:25:19 10° SE 03:29:15 35° ENE 03:33:12 10° N
Cosmos 2278 3.9 03:24:23 10° NNW 03:30:03 70° ENE 03:35:41 10° SE
Cosmos 2322 Rocket 4.4 03:26:39 10° N 03:31:03 22° NE 03:35:26 10° E
MSX 4.4 03:27:19 10° N 03:32:03 35° NW 03:32:03 35° NW
Cosmos 1300 3.1 03:30:37 10° N 03:34:25 63° E 03:38:11 10° SSE
Cosmos 220 Rocket 3.9 03:32:31 33° NNW 03:34:28 83° WSW 03:38:53 10° SSE
ALOS 2.7 03:30:03 10° NNE 03:34:42 64° ESE 03:39:20 10° S
CZ-4B R/B 1.5 03:32:20 10° SSE 03:35:47 78° ENE 03:37:08 35° N
Cosmos 1833 Rocket 2.6 03:33:50 29° SW 03:36:49 75° WNW 03:42:30 10° NNE
Cosmos 1992 Rocket 3.9 03:34:13 10° NNW 03:39:28 86° WSW 03:44:41 10° SSE
SL-14 R/B 3.3 03:36:06 10° S 03:40:04 82° E 03:44:08 10° N
Cosmos 1626 1.9 03:39:55 50° SSW 03:40:46 79° W 03:44:30 10° N
Cosmos 1689 Rocket 3.8 03:41:00 10° SE 03:43:40 32° ENE 03:46:20 10° N
METEOR-M 4.5 03:39:39 10° NNE 03:45:00 66° ESE 03:50:17 10° S
NOSS 3-2 (C) 4.0 03:43:22 34° WNW 03:45:12 42° NW 03:51:35 10° NE
deb Chang Zheng 4 3.7 03:41:58 10° NNE 03:46:14 71° ESE 03:50:28 10° S
deb Kosmos-1763 3.8 03:46:47 55° SW 03:47:26 73° WNW 03:51:02 10° NNE
Cosmos 2058 Rocket 3.6 03:47:54 10° N 03:52:23 62° ENE 03:56:49 10° SSE
CENTAUR R/B 3.2 03:50:11 30° W 03:52:45 42° NW 03:59:41 10° NE
Cosmos 2369 3.8 03:49:30 16° NW 03:53:53 54° WSW 03:59:20 10° S
SL-19 R/B 4.4 03:51:18 10° NNE 03:54:04 50° ESE 03:56:53 10° S
Meteor 1-24 Rocket 3.7 03:50:33 10° S 03:56:12 89° WNW 04:02:06 10° N
Cosmos 1484 Rocket 2.6 03:53:20 10° N 03:57:12 73° WNW 04:00:58 10° SSW
Cosmos 2082 Rocket 2.1 03:54:05 10° SSW 03:59:42 85° WNW 04:05:22 10° NNE
Cosmos 1461 3.1 03:57:50 25° SW 04:00:23 67° NW 04:05:07 10° NNE
Cosmos 1892 Rocket 3.5 03:57:19 10° S 04:01:40 86° E 04:06:04 10° N
Cosmos 2026 Rocket 4.2 03:56:37 10° S 04:02:59 81° E 04:09:23 10° N
PSLV R/B 4.4 04:01:47 10° N 04:05:24 27° WNW 04:05:31 27° WNW
CZ-2C R/B 3.1 04:02:40 10° N 04:07:01 31° WNW 04:08:51 24° WSW
SL-16 R/B 3.3 04:02:15 10° NNW 04:07:40 43° NE 04:13:03 10° SE
Cosmos 2195 Rocket 4.4 04:01:45 10° S 04:07:58 81° W 04:14:10 10° N
USA 290 2.1 04:06:41 25° SW 04:08:23 60° WNW 04:11:37 10° NNE
CREW DRAGON DEMO-1 DEB 3.0 04:08:42 34° NW 04:09:47 62° NNE 04:12:46 10° ESE
ISS -3.7 04:09:06 36° W 04:10:17 63° NNW 04:13:38 10° ENE
Cosmos 2251 Rocket 3.5 04:05:31 10° SSW 04:10:52 72° WNW 04:16:14 10° NNE
SKYMED 2 3.5 04:12:52 10° S 04:17:12 78° WSW 04:21:34 10° NNW
Lacrosse 4 Rocket 2.9 04:18:22 18° NW 04:18:50 18° NW 04:21:43 10° N
PSLV R/B 3.9 04:15:43 10° SSE 04:19:55 83° WSW 04:24:10 10° NNW
Cosmos 1697 Rocket 3.5 04:16:50 15° NW 04:20:34 29° WSW 04:25:21 10° SSW
Meteor 1-31 Rocket 2.9 04:18:04 10° N 04:21:55 53° WNW 04:25:44 10° SSW
Cosmos 1455 3.4 04:18:54 10° N 04:22:38 45° ENE 04:26:22 10° SSE
COSMOS 2406 4.1 04:21:37 18° W 04:24:53 30° NW 04:29:49 10° N
Cosmos 1626 Rocket 4.5 04:21:24 10° S 04:25:45 54° E 04:30:08 10° NNE
CZ-4B R/B 2.9 04:22:37 10° NNE 04:26:40 84° WNW 04:30:54 10° SSW
[s.n.46727] 2.5 04:25:26 25° WSW 04:26:49 65° NNW 04:29:33 10° ENE
[s.n.46723] 2.6 04:25:27 24° WSW 04:26:54 65° NNW 04:29:41 10° ENE
[s.n.46707] 2.5 04:25:36 25° WSW 04:26:59 64° NNW 04:29:44 10° ENE
[s.n.46708] 2.5 04:25:41 25° WSW 04:27:05 64° NNW 04:29:50 10° ENE
[s.n.46719] 2.5 04:25:47 25° WSW 04:27:10 64° NNW 04:29:55 10° ENE
[s.n.46724] 2.5 04:25:51 25° WSW 04:27:16 64° NNW 04:30:00 10° ENE
[s.n.46687] 2.5 04:25:57 25° WSW 04:27:21 64° NNW 04:30:05 10° ENE
[s.n.46696] 2.5 04:26:02 25° WSW 04:27:26 64° NNW 04:30:12 10° ENE
[s.n.46720] 2.5 04:26:07 24° WSW 04:27:33 64° NNW 04:30:17 10° ENE
[s.n.46676] 2.5 04:26:12 24° WSW 04:27:37 64° NNW 04:30:22 10° ENE
Lacrosse 5 rocket 1.8 04:25:46 21° W 04:27:43 36° NNW 04:31:17 10° NE
[s.n.46721] 2.5 04:26:18 24° WSW 04:27:43 64° NNW 04:30:27 10° ENE
[s.n.46728] 2.5 04:26:23 24° WSW 04:27:48 63° NNW 04:30:32 10° ENE
[s.n.46690] 2.5 04:26:28 24° WSW 04:27:54 63° NNW 04:30:38 10° ENE
Meteor 2-5 Rocket 4.1 04:22:32 10° SW 04:27:54 41° WNW 04:33:26 10° N
[s.n.46694] 2.5 04:26:32 24° WSW 04:27:58 63° NNW 04:30:42 10° ENE
[s.n.46702] 2.5 04:26:39 24° WSW 04:28:04 63° NNW 04:30:49 10° ENE
[s.n.46679] 2.5 04:26:42 24° WSW 04:28:09 63° NNW 04:30:53 10° ENE
[s.n.46704] 2.6 04:26:44 24° WSW 04:28:13 63° NNW 04:31:01 10° ENE
[s.n.46712] 2.5 04:26:50 24° WSW 04:28:17 63° NNW 04:31:01 10° ENE
[s.n.46711] 2.6 04:26:58 24° WSW 04:28:26 63° NNW 04:31:10 10° ENE
[s.n.46684] 2.6 04:27:01 24° WSW 04:28:28 63° NNW 04:31:12 10° ENE
[s.n.46706] 2.6 04:27:09 24° WSW 04:28:36 63° NNW 04:31:21 10° ENE
[s.n.46678] 2.6 04:27:07 23° WSW 04:28:38 63° NNW 04:31:26 10° ENE
[s.n.46677] 2.6 04:27:17 24° WSW 04:28:44 62° NNW 04:31:29 10° ENE
[s.n.46671] 2.6 04:27:22 23° WSW 04:28:49 62° NNW 04:31:34 10° ENE
[s.n.46675] 2.6 04:27:27 23° WSW 04:28:55 62° NNW 04:31:40 10° ENE
[s.n.46674] 2.6 04:27:32 23° WSW 04:29:01 62° NNW 04:31:46 10° ENE
[s.n.46698] 2.6 04:27:38 23° WSW 04:29:07 62° NNW 04:31:51 10° ENE
FENGYUN 3A 3.9 04:23:59 10° N 04:29:10 46° WNW 04:34:20 10° SW
[s.n.46699] 2.6 04:27:39 23° WSW 04:29:11 62° NNW 04:31:58 10° ENE
[s.n.46715] 2.6 04:27:48 23° WSW 04:29:17 62° NNW 04:32:02 10° ENE
[s.n.46714] 2.6 04:27:53 23° WSW 04:29:22 62° NNW 04:32:08 10° ENE
[s.n.46726] 2.6 04:27:58 23° WSW 04:29:28 62° NNW 04:32:13 10° ENE
[s.n.46703] 2.6 04:28:03 23° WSW 04:29:33 61° NNW 04:32:18 10° ENE
[s.n.46713] 2.6 04:28:09 23° WSW 04:29:39 61° NNW 04:32:24 10° ENE
[s.n.46717] 2.6 04:28:14 23° WSW 04:29:45 61° NNW 04:32:29 10° NE
[s.n.46691] 2.6 04:28:16 22° WSW 04:29:49 62° NNW 04:32:36 10° ENE
[s.n.46693] 2.6 04:28:25 23° WSW 04:29:56 61° NNW 04:32:40 10° NE
[s.n.46672] 2.6 04:28:30 23° WSW 04:30:02 61° NNW 04:32:46 10° NE
[s.n.46701] 2.6 04:28:35 23° WSW 04:30:06 61° NNW 04:32:51 10° NE
[s.n.46685] 2.6 04:28:40 22° WSW 04:30:12 61° NNW 04:32:56 10° NE
[s.n.46709] 2.6 04:28:46 22° W 04:30:18 61° NNW 04:33:02 10° NE
[s.n.46683] 2.6 04:28:50 22° W 04:30:22 61° NNW 04:33:07 10° NE
[s.n.46695] 2.6 04:28:55 22° W 04:30:27 60° NNW 04:33:12 10° NE
[s.n.46688] 2.6 04:29:02 22° W 04:30:35 60° NNW 04:33:19 10° NE
[s.n.46729] 2.6 04:29:06 22° W 04:30:39 60° NNW 04:33:23 10° NE
[s.n.46697] 2.6 04:29:09 22° W 04:30:42 60° NNW 04:33:26 10° NE
[s.n.46725] 2.6 04:29:14 22° W 04:30:46 60° NNW 04:33:31 10° NE
[s.n.46682] 2.6 04:29:19 22° W 04:30:52 60° NNW 04:33:37 10° NE
[s.n.46680] 2.6 04:29:25 22° W 04:30:58 60° NNW 04:33:43 10° NE
[s.n.46718] 2.6 04:29:30 22° W 04:31:04 60° NNW 04:33:48 10° NE
[s.n.46710] 2.6 04:29:35 22° W 04:31:09 60° NNW 04:33:54 10° NE
[s.n.46673] 2.6 04:29:46 22° W 04:31:20 60° NNW 04:34:04 10° NE
[s.n.46700] 2.6 04:29:51 22° W 04:31:25 59° NNW 04:34:10 10° NE
[s.n.46705] 2.6 04:29:56 22° W 04:31:32 59° NNW 04:34:15 10° NE
[s.n.46692] 2.6 04:30:02 22° W 04:31:37 59° NNW 04:34:22 10° NE
[s.n.46686] 2.6 04:30:07 22° W 04:31:42 59° NNW 04:34:27 10° NE
[s.n.46716] 2.6 04:30:12 21° W 04:31:48 59° NNW 04:34:32 10° NE
[s.n.46722] 2.6 04:30:17 21° W 04:31:53 59° NNW 04:34:37 10° NE
Cosmos 2360 Rocket 3.8 04:26:57 10° NNW 04:31:59 32° NE 04:36:59 10° ESE
[s.n.46689] 2.6 04:30:23 21° W 04:31:59 59° NNW 04:34:43 10° NE
[s.n.46681] 2.6 04:30:28 21° W 04:32:04 59° NNW 04:34:49 10° NE
SAR-Lupe-4 4.5 04:34:09 10° SSW 04:37:13 27° W 04:40:20 10° NW
ERS-2 3.8 04:37:15 10° SW 04:39:16 14° W 04:39:17 14° W
Cosmos 1726 Rocket 4.4 04:35:57 10° NNW 04:39:46 28° W 04:43:34 10° SSW
USA 234 4.2 04:34:42 10° ENE 04:40:35 37° N 04:46:28 10° WNW
ATLAS 3B R/B 2.8 04:34:11 10° WSW 04:40:36 53° NW 04:47:10 10° NE
Cosmos 2098 Rocket 3.8 04:35:53 10° S 04:41:55 78° E 04:46:41 10° NNE
Cosmos 1980 Rocket 2.8 04:38:27 10° NW 04:43:28 35° WSW 04:48:28 10° S
Cosmos 2228 4.4 04:41:41 10° NW 04:44:46 19° W 04:47:49 10° SW
Abrixas rocket 3.3 04:43:59 14° W 04:45:50 25° SSW 04:48:14 10° SSE
ATLAS CENTAUR R/B 2.7 04:42:22 10° S 04:46:02 39° ESE 04:49:34 10° NE
Cosmos 1092 Rocket 4.4 04:41:27 10° SW 04:47:09 39° WNW 04:52:59 10° N
ADEOS Rocket 4.3 04:45:31 10° WSW 04:47:47 12° W 04:50:04 10° WNW
CZ-2C R/B 4.3 04:42:43 10° SE 04:47:48 37° ENE 04:52:55 10° N
Envisat 4.0 04:43:24 10° NNE 04:48:23 53° E 04:53:21 10° S
ADEOS 4.4 04:45:34 10° N 04:50:03 30° WNW 04:54:31 10° WSW
Cosmos 407 Rocket 3.5 04:47:52 10° SSW 04:53:00 88° WNW 04:58:12 10° NNE
Meteor 2-19 Rocket 4.4 04:47:12 10° SSW 04:53:17 78° W 04:59:24 10° N
Aureole 3 4.5 04:49:44 10° NNW 04:53:31 32° W 04:58:08 10° SSW
Cosmos 1140 Rocket 3.6 04:50:37 10° SSW 04:55:44 80° ESE 05:00:53 10° NNE
CZ-3 R/B 4.0 04:41:20 10° WSW 04:55:58 26° SSW 05:01:54 10° SSE
Cosmos 1400 Rocket 4.1 04:53:25 10° NW 04:56:15 19° W 04:59:03 10° SW
Cosmos 2219 Rocket 4.3 04:53:34 10° N 04:57:57 22° NE 05:02:18 10° E
COSMO-SKYMED 1 3.6 05:01:52 10° SSW 05:05:28 25° W 05:09:06 10° NW
S3M 4.1 05:02:04 10° NNW 05:08:20 70° W 05:14:38 10° S
